Location: Kerb�bon
(47.7970°N, 3.3487°W)
Time: 12:08:02
(UTC+00:00)

NOSS 3-3 (C) - Pass Details

Date: 12 May 2021
Orbit: 806 x 1406 km, 63.4° (Epoch: 14 June)

Event Time Altitude Azimuth Distance (km) Brightness Sun altitude
Rises 20:35:07 0° 208° (SSW) 3,367 6.7 -8.3°
Reaches altitude 10° 20:37:28 10° 205° (SSW) 2,478 6.0 -8.6°
Maximum altitude 20:43:07 66° 124° (SE) 1,002 3.9 -9.3°
Drops below altitude 10° 20:49:35 10° 44° (NE) 2,827 6.4 -10.1°
Sets 20:52:24 0° 42° (NE) 3,878 7.2 -10.5°
